Location: Bęczków
(50.8761°N, 20.8028°E)
Time: 23:13:30
(UTC+01:00)

ISS - Visible Passes

Search period start: 23 January 2019 00:00
Search period end: 02 February 2019 00:00
Orbit: 404 x 410 km, 51.6° (Epoch: 24 January)

Date Brightness Start Highest point End Pass type
(mag) Time Alt. Az. Time Alt. Az. Time Alt. Az.
23 Jan -1.5 18:39:58 10° SSW 18:41:05 17° SSW 18:41:05 17° SSW visible
24 Jan -2.1 17:49:16 10° S 17:51:42 19° SE 17:52:04 19° SE visible
24 Jan -0.5 19:24:33 10° WSW 19:24:47 12° WSW 19:24:47 12° WSW visible
25 Jan -1.4 16:59:06 10° SSE 17:00:34 12° SE 17:02:02 10° ESE visible
25 Jan -2.7 18:33:19 10° SW 18:35:41 38° SSW 18:35:41 38° SSW visible
26 Jan -2.8 17:42:12 10° SW 17:45:14 34° SSE 17:46:30 25° ESE visible
26 Jan -0.9 19:18:17 10° W 19:19:14 18° W 19:19:14 18° W visible
27 Jan -3.7 18:26:54 10° WSW 18:30:00 72° SSW 18:30:00 72° SSW visible
28 Jan -3.6 17:35:35 10° WSW 17:38:50 58° SSE 17:40:43 22° E visible
28 Jan -1.3 19:12:03 10° W 19:13:26 23° W 19:13:26 23° W visible
29 Jan -4.0 18:20:36 10° W 18:23:55 81° N 18:24:07 75° NE visible
30 Jan -3.8 17:29:10 10° WSW 17:32:28 86° SSE 17:34:47 18° ENE visible
30 Jan -1.7 19:05:46 10° W 19:07:30 28° WNW 19:07:30 28° WNW visible
31 Jan -3.9 18:14:18 10° W 18:17:37 75° N 18:18:09 57° ENE visible
01 Feb -3.8 17:22:49 10° W 17:26:07 78° N 17:28:49 15° E visible
01 Feb -2.3 18:59:24 10° WNW 19:01:32 36° W 19:01:32 36° W visible
